IRIDIUM 84 [-]

Last updated on Nov. 5, 2018, 12:08 a.m. UTC

1 25530U 98066D   18308.16263985  .14692908 -12992-5  17166-3 0  9996
2 25530  86.3303 133.9760 0023608 330.0623  29.9337 16.48255628 50011

Satellite is not in orbit.